| time (UTC) | temp C | wind direction | speed KPH | gust KPH | rain 1hr cm | rain 24hr cm | rain mn cm | humidity % | barometer mb |
| 20260503191556 | 22 | 41 | 22.5 | 41.8 | 0.00 | 0.00 | 0.00 | 45 | 1015.6 |
| 20260503184559 | 22 | 50 | 24.1 | 35.4 | 0.00 | 0.00 | 0.00 | 47 | 1015.9 |
| 20260503183056 | 22 | 40 | 20.9 | 29.0 | 0.00 | 0.00 | 0.00 | 50 | 1015.9 |
| 20260503181559 | 21 | 36 | 22.5 | 35.4 | 0.00 | 0.00 | 0.00 | 50 | 1016.4 |
| 20260503180057 | 21 | 25 | 22.5 | 32.2 | 0.00 | 0.00 | 0.00 | 50 | 1016.7 |
| 20260503174600 | 20 | 33 | 19.3 | 29.0 | 0.00 | 0.00 | 0.00 | 50 | 1017.0 |
| 20260503173050 | 20 | 42 | 19.3 | 30.6 | 0.00 | 0.00 | 0.00 | 51 | 1017.3 |
| 20260503171553 | 20 | 294 | 17.7 | 33.8 | 0.00 | 0.00 | 0.00 | 49 | 1017.7 |
| 20260503100107 | 7 | 331 | 4.8 | 11.3 | 0.00 | 0.00 | 0.00 | 65 | 1018.9 |
| 20260503081559 | 8 | 27 | 3.2 | 8.0 | 0.00 | 0.00 | 0.00 | 66 | 1019.7 |
| 20260503071559 | 5 | 34 | 1.6 | 4.8 | 0.00 | 0.00 | 0.00 | 83 | 1020.0 |
| 20260503060115 | 5 | 0 | 0.0 | 1.6 | 0.00 | 0.00 | 0.00 | 84 | 1020.6 |
| 20260503054622 | 5 | 0 | 0.0 | 0.0 | 0.00 | 0.00 | 0.00 | 83 | 1020.6 |
| 20260503053056 | 5 | 0 | 0.0 | 0.0 | 0.00 | 0.00 | 0.00 | 81 | 1020.6 |
| 20260503051555 | 6 | 0 | 0.0 | 0.0 | 0.00 | 0.00 | 0.00 | 82 | 1020.5 |
| 20260503050056 | 6 | 0 | 0.0 | 0.0 | 0.00 | 0.00 | 0.00 | 82 | 1020.6 |
| 20260503044552 | 6 | 0 | 0.0 | 0.0 | 0.00 | 0.00 | 0.00 | 82 | 1020.6 |
| 20260503043055 | 6 | 0 | 0.0 | 0.0 | 0.00 | 0.00 | 0.00 | 80 | 1020.5 |
| 20260503041550 | 6 | 0 | 0.0 | 0.0 | 0.00 | 0.00 | 0.00 | 80 | 1020.6 |
| 20260503040055 | 7 | 0 | 0.0 | 0.0 | 0.00 | 0.00 | 0.00 | 77 | 1020.6 |
| 20260503034552 | 7 | 0 | 0.0 | 0.0 | 0.00 | 0.00 | 0.00 | 75 | 1020.6 |
| 20260503033058 | 7 | 0 | 0.0 | 0.0 | 0.00 | 0.00 | 0.00 | 75 | 1020.7 |
| 20260503031555 | 8 | 0 | 0.0 | 0.0 | 0.00 | 0.00 | 0.00 | 72 | 1020.6 |
| 20260503030052 | 8 | 0 | 0.0 | 0.0 | 0.00 | 0.00 | 0.00 | 72 | 1020.6 |
| 20260503024555 | 8 | 0 | 0.0 | 0.0 | 0.00 | 0.00 | 0.00 | 71 | 1020.5 |
| 20260503023057 | 9 | 0 | 0.0 | 0.0 | 0.00 | 0.00 | 0.00 | 67 | 1020.2 |
| 20260503021555 | 10 | 0 | 0.0 | 0.0 | 0.00 | 0.00 | 0.00 | 64 | 1020.2 |
| 20260503020050 | 11 | 0 | 0.0 | 0.0 | 0.00 | 0.00 | 0.00 | 63 | 1020.1 |
| 20260503014559 | 11 | 0 | 0.0 | 1.6 | 0.00 | 0.00 | 0.00 | 58 | 1020.0 |
| 20260503013053 | 12 | 109 | 0.0 | 1.6 | 0.00 | 0.00 | 0.00 | 53 | 1019.9 |
| 20260503011551 | 12 | 0 | 0.0 | 3.2 | 0.00 | 0.00 | 0.00 | 52 | 1019.8 |
| 20260503010052 | 13 | 109 | 0.0 | 4.8 | 0.00 | 0.00 | 0.00 | 49 | 1019.6 |
| 20260503004551 | 14 | 114 | 3.2 | 9.7 | 0.00 | 0.00 | 0.00 | 46 | 1019.5 |
| 20260503003053 | 15 | 120 | 4.8 | 11.3 | 0.00 | 0.00 | 0.00 | 44 | 1019.6 |
| 20260503001552 | 15 | 120 | 3.2 | 12.9 | 0.00 | 0.00 | 0.00 | 43 | 1019.5 |
| 20260503000104 | 15 | 133 | 6.4 | 12.9 | 0.00 | 0.00 | 0.00 | 41 | 1019.6 |
| 20260502234559 | 15 | 148 | 9.7 | 16.1 | 0.00 | 0.00 | 0.00 | 41 | 1019.5 |
| 20260502233052 | 15 | 118 | 4.8 | 20.9 | 0.00 | 0.00 | 0.00 | 41 | 1019.5 |
| 20260502231601 | 15 | 121 | 8.0 | 17.7 | 0.00 | 0.00 | 0.00 | 41 | 1019.6 |
| 20260502230056 | 15 | 117 | 11.3 | 20.9 | 0.00 | 0.00 | 0.00 | 40 | 1019.7 |
| 20260502224552 | 15 | 142 | 9.7 | 19.3 | 0.00 | 0.00 | 0.00 | 41 | 1019.6 |
| 20260502223057 | 15 | 100 | 8.0 | 22.5 | 0.00 | 0.00 | 0.00 | 41 | 1019.6 |
| 20260502221556 | 15 | 109 | 12.9 | 19.3 | 0.00 | 0.00 | 0.00 | 40 | 1019.7 |
| 20260502220058 | 15 | 149 | 6.4 | 19.3 | 0.00 | 0.00 | 0.00 | 41 | 1019.6 |
| 20260502214552 | 15 | 94 | 9.7 | 20.9 | 0.00 | 0.00 | 0.00 | 42 | 1019.6 |
| 20260502213105 | 15 | 130 | 11.3 | 29.0 | 0.00 | 0.00 | 0.00 | 42 | 1019.7 |
| 20260502211600 | 15 | 150 | 11.3 | 19.3 | 0.00 | 0.00 | 0.00 | 41 | 1019.7 |
| 20260502210055 | 15 | 124 | 14.5 | 24.1 | 0.00 | 0.00 | 0.00 | 43 | 1019.7 |
| 20260502204605 | 15 | 149 | 9.7 | 16.1 | 0.00 | 0.00 | 0.00 | 42 | 1019.9 |
| 20260502203058 | 15 | 115 | 14.5 | 24.1 | 0.00 | 0.00 | 0.00 | 41 | 1020.1 |
| 20260502201557 | 15 | 109 | 12.9 | 25.7 | 0.00 | 0.00 | 0.00 | 40 | 1020.2 |
| 20260502200052 | 15 | 117 | 14.5 | 25.7 | 0.00 | 0.00 | 0.00 | 44 | 1020.4 |
| 20260502194553 | 15 | 92 | 16.1 | 24.1 | 0.00 | 0.00 | 0.00 | 42 | 1020.3 |
| 20260502193056 | 14 | 122 | 3.2 | 20.9 | 0.00 | 0.00 | 0.00 | 42 | 1020.4 |